IRIDIUM 96

Last updated on Wed Nov 29 2017 00:19:03 GMT+0000 (Coordinated Universal Time)

1 27376U 02005E 17332.19887497 .00000193 00000-0 61704-4 0 9996 2 27376 86.4012 250.6798 0001801 49.2960 310.8392 14.34220669839626
UTC large
Height (km)
Speed (km/s)
/
Latitude / Longitude
Inclination (degrees)
Orbital Period (minutes)
Azimuth
Elevation
Range (km)
Doppler Factor

Next 0 passes for location: London (51.5072 / 0.1276)

Sorry there are no passes over London.